GEFSCGP_500_meanwind_036.txt.gz
Wind_Speed
35 35 34 33 33 33 34 34 35 36 39 40 40 36 33 34 35 35 34 33 32 29 26 25 23 20 19 19 20 22 25 28 31 33 34 36 39 38 38 38 37 36 34 32
35 34 33 34 35 35 36 36 35 35 39 42 43 41 37 37 37 37 36 35 33 30 28 27 25 23 21 21 22 24 27 29 32 35 37 40 41 40 39 38 34 32 30 29
33 31 32 34 35 35 35 35 34 34 38 41 43 43 40 38 38 38 37 36 34 32 30 29 28 26 25 25 26 27 29 32 35 38 39 41 43 42 40 36 32 29 28 27
33 32 32 34 34 34 33 31 32 33 36 39 41 41 39 39 38 38 38 38 36 34 33 32 31 31 30 30 30 32 34 36 39 41 42 43 43 43 40 37 32 30 27 26
31 30 32 33 32 33 29 30 32 34 36 38 39 40 37 37 38 37 38 39 38 37 35 34 33 34 34 34 35 37 38 41 42 44 45 46 45 45 41 38 34 31 27 27
31 31 33 33 33 33 31 33 34 35 35 36 35 37 37 37 36 37 38 39 39 38 37 36 36 36 37 38 39 41 43 43 44 45 46 47 45 42 39 37 35 32 30 29
29 31 32 33 34 34 33 34 34 34 35 34 31 34 36 36 36 37 38 38 39 38 38 37 38 38 40 41 42 43 43 43 43 44 44 45 45 43 40 39 37 35 33 33
27 28 30 31 31 31 31 33 34 34 33 30 29 31 33 33 33 34 35 35 35 35 36 36 36 37 38 38 39 39 40 41 41 42 44 46 45 45 44 42 40 39 38 39
24 24 25 27 29 31 32 33 32 32 31 30 30 31 31 31 30 31 32 32 32 32 32 32 31 31 32 33 34 35 37 39 41 43 45 46 46 46 45 44 42 42 42 44
22 22 24 26 31 33 34 34 32 32 30 29 30 29 28 28 28 29 31 31 31 32 32 32 32 32 33 34 35 36 38 41 43 45 47 48 48 47 46 46 46 46 47 48
21 22 24 27 32 35 35 35 34 33 31 29 28 28 29 29 29 30 31 32 31 32 32 33 33 34 35 36 38 39 41 43 45 47 49 50 50 50 49 49 49 49 51 53
21 22 24 28 31 34 35 35 33 32 31 31 30 31 30 30 30 31 32 33 33 33 33 34 34 36 37 39 41 43 45 47 49 50 50 51 52 52 52 52 53 54 55 56
23 24 25 28 31 34 34 34 34 34 33 33 32 34 33 33 34 35 35 35 35 35 35 35 36 37 39 41 43 46 48 50 52 52 53 54 54 55 56 56 56 57 57 58
25 27 27 29 31 33 34 35 35 35 35 36 36 36 38 38 39 40 40 40 39 37 37 38 38 40 41 44 46 48 50 52 54 56 57 57 58 58 58 58 58 57 58 58
29 29 30 31 33 34 35 35 36 37 37 37 38 40 40 41 42 42 42 41 40 39 39 40 42 44 45 47 50 52 54 55 57 58 58 58 58 58 57 57 57 58 58 58
32 33 33 34 35 37 38 38 38 39 39 39 39 40 40 41 42 41 39 39 39 40 41 43 45 47 49 51 53 55 57 57 58 57 57 57 56 56 56 56 57 56 56 56
33 34 35 36 37 38 40 39 40 40 41 41 41 42 43 41 39 39 39 40 41 43 45 47 48 50 52 54 55 55 55 55 55 55 55 55 54 54 55 55 55 54 53 53
31 34 35 36 37 38 38 38 38 38 38 39 40 40 39 39 38 38 38 40 41 42 44 45 47 49 51 52 53 53 54 53 53 53 53 53 53 52 52 51 50 50 49 49
25 27 30 32 34 36 36 36 35 35 34 34 34 34 35 35 35 36 36 37 39 41 43 45 47 49 50 51 51 51 51 51 51 50 50 50 49 48 48 47 46 46 46 46
21 22 24 26 27 29 30 30 31 32 31 31 32 32 34 35 35 36 38 39 41 43 44 46 47 48 48 48 48 48 48 48 48 47 47 46 45 44 44 43 43 43 43 43
19 19 20 21 22 24 24 25 26 26 26 28 30 32 33 34 36 37 38 40 41 42 43 43 44 44 45 45 45 45 45 44 44 43 42 41 41 40 40 40 40 40 41 41
17 17 17 18 19 19 19 21 23 23 24 25 27 28 29 31 32 34 35 36 37 38 39 40 40 41 41 41 41 40 40 39 39 38 37 37 37 37 38 38 39 39 39 39
15 15 15 15 16 16 17 18 20 21 22 23 24 25 26 27 29 30 31 32 33 34 35 36 37 37 37 36 36 35 34 34 34 34 34 35 36 36 37 37 37 37 36 35
14 13 14 14 14 16 16 16 17 18 19 20 22 23 25 26 27 28 29 30 31 31 31 31 31 31 30 30 30 29 30 31 32 33 34 35 35 36 36 35 34 33 31 29
14 13 13 13 14 15 16 17 17 18 19 20 22 23 24 25 26 26 26 26 26 26 26 25 25 25 25 25 26 27 29 30 32 33 34 34 34 34 33 31 29 27 25 22
14 13 13 13 14 15 16 17 18 19 19 20 21 21 21 22 21 21 21 21 20 20 20 20 20 21 22 24 25 27 29 30 32 32 32 32 31 30 28 25 23 20 18 16

GEFSCGP_500_meanwind_042.txt.gz
Wind_Speed
32 31 30 29 30 31 30 30 30 32 31 30 30 30 29 29 28 28 28 27 26 25 25 25 24 25 26 27 28 28 28 27 27 27 28 30 33 36 40 43 42 41 40 39
32 31 30 30 30 31 31 31 31 33 34 34 34 33 32 32 32 31 31 30 30 30 30 29 28 27 28 29 29 30 30 30 30 30 31 33 35 38 41 42 43 42 39 34
32 30 30 30 30 30 31 31 32 34 36 37 36 35 36 37 36 35 34 34 34 34 34 33 32 30 30 29 30 31 31 32 33 34 35 36 38 40 41 43 43 42 38 34
33 32 30 30 30 30 30 31 32 34 36 38 39 36 36 40 39 38 38 37 37 37 37 36 34 32 31 31 31 32 33 34 35 36 38 39 40 41 42 43 42 40 38 34
32 31 30 29 29 30 30 31 32 35 36 38 38 37 35 40 40 40 40 40 40 40 39 38 35 33 33 32 33 34 35 37 38 39 40 41 42 42 43 42 42 40 37 34
31 30 30 30 30 30 30 31 32 33 35 37 36 36 34 41 39 39 39 39 39 39 39 37 36 34 33 33 34 35 37 38 39 40 41 42 42 42 42 41 40 38 37 34
28 28 28 29 29 30 30 29 29 30 32 31 32 33 34 39 36 35 36 37 37 37 36 35 34 33 33 33 33 35 36 38 39 41 42 42 42 41 40 39 38 38 37 36
22 23 25 27 27 28 28 28 27 24 22 23 29 30 36 35 33 32 31 32 32 32 32 31 31 31 31 31 32 33 36 37 39 40 41 41 40 39 38 38 38 38 39 39
17 18 21 23 24 26 27 27 27 27 25 22 23 30 34 32 31 29 28 28 28 28 27 27 27 28 28 29 30 32 34 36 37 38 39 39 40 40 40 40 40 41 42 42
14 15 17 19 21 23 25 25 27 29 25 23 23 27 30 30 29 28 27 26 26 26 25 25 26 27 28 29 31 32 34 36 37 38 39 39 40 40 41 42 43 44 45 46
12 13 14 17 19 20 23 25 27 26 24 22 20 23 28 27 27 27 26 26 25 25 25 26 27 29 30 32 33 34 35 36 37 38 39 40 41 43 44 45 47 48 49 50
11 12 14 17 19 21 22 24 25 26 26 27 24 27 27 26 26 26 26 26 27 27 28 29 31 32 33 35 36 37 38 39 40 40 41 42 44 46 47 49 50 51 52 52
11 12 13 15 19 22 24 25 27 28 28 27 25 30 31 30 29 28 28 29 30 31 33 34 35 36 37 39 40 41 42 43 43 44 45 46 47 49 50 51 52 53 53 53
12 14 15 16 19 22 24 26 28 29 27 28 29 33 33 33 33 33 34 34 35 36 37 39 40 40 42 42 43 44 45 45 46 46 47 48 50 51 52 53 54 54 54 54
14 17 18 21 22 24 25 27 28 31 32 31 33 35 35 35 35 35 36 37 38 39 41 42 42 43 43 44 44 44 45 45 46 47 49 50 51 52 53 54 54 55 55 55
15 17 19 22 24 25 27 28 30 31 33 34 35 36 37 36 37 37 37 38 39 40 41 41 41 42 42 42 42 43 44 44 45 46 48 50 51 52 53 54 54 54 54 54
16 17 19 21 22 24 27 29 31 32 33 34 35 37 37 38 38 38 39 39 39 40 40 40 40 39 39 41 41 41 42 43 45 47 49 50 51 52 53 53 53 52 52 52
16 17 18 20 21 23 27 27 29 31 33 33 35 36 37 37 37 37 38 38 38 38 37 37 37 38 39 40 40 41 43 45 47 48 49 50 50 51 51 50 50 50 50 49
15 16 17 18 19 21 24 24 25 28 30 32 33 34 35 35 35 36 35 35 35 34 34 35 36 37 38 40 42 43 45 46 47 48 48 48 48 48 48 48 47 47 47 47
15 15 16 16 16 19 21 21 22 24 28 28 29 30 30 30 31 31 31 31 32 33 35 35 37 38 40 41 42 43 44 45 45 46 46 46 46 46 45 45 45 44 44 44
15 15 14 14 15 17 16 16 17 20 23 23 24 25 25 26 27 27 28 29 30 32 33 35 36 38 39 40 42 42 43 43 43 43 44 44 43 43 43 43 42 42 42 42
15 14 13 12 13 14 13 13 15 16 18 19 21 21 22 23 24 25 26 27 29 31 32 34 35 37 38 39 39 40 40 41 41 41 41 41 41 40 40 40 40 40 40 39
14 13 11 11 12 13 13 13 13 15 16 18 19 19 20 21 23 24 25 26 28 30 31 32 33 35 36 36 37 37 37 37 38 38 38 39 39 39 39 39 38 37 36 36
13 12 11 11 11 12 12 12 13 13 14 16 17 18 19 21 22 23 24 26 27 28 29 30 31 31 31 32 33 33 34 35 36 37 37 38 38 37 36 36 34 33 31 30
12 11 11 11 11 12 13 14 14 15 16 17 18 19 20 20 21 22 22 23 24 25 25 26 26 27 28 29 30 31 33 34 35 36 36 36 35 34 32 30 28 26 24 22
12 11 11 11 11 12 13 14 14 15 16 16 17 18 18 18 19 19 20 20 20 21 21 21 22 24 25 27 29 31 32 33 34 34 33 31 30 27 25 22 20 17 16 14

GEFSCGP_500_meanwind_048.txt.gz
Wind_Speed
33 32 30 27 24 22 18 16 14 13 17 19 18 19 20 19 21 22 21 20 20 21 23 26 25 23 23 21 21 22 25 27 27 28 29 31 31 31 31 31 32 34 35 35
32 31 28 26 24 25 25 23 20 18 21 24 22 22 24 25 24 26 26 26 27 29 31 29 27 25 27 26 24 26 28 29 30 31 32 33 34 34 33 34 35 37 38 39
31 27 26 26 25 28 29 27 23 21 24 27 26 24 25 28 29 29 30 32 33 33 32 29 29 29 30 31 29 30 31 32 33 33 34 35 36 36 37 37 38 40 41 41
30 28 27 26 26 27 28 27 26 27 27 26 26 25 24 25 28 30 33 35 35 33 33 33 33 33 34 34 34 34 34 35 35 35 36 37 38 39 40 40 41 43 44 43
25 28 29 28 27 27 25 23 25 28 30 29 27 27 23 22 27 31 35 35 33 33 33 34 35 36 36 37 37 37 37 36 36 37 38 39 40 41 42 42 44 45 45 44
22 24 26 27 26 26 26 26 26 27 28 30 28 26 23 23 29 36 39 35 33 33 34 35 36 37 38 38 38 38 37 37 37 38 39 40 42 43 43 44 45 45 45 45
20 21 23 25 25 25 25 26 24 23 25 25 21 23 26 30 33 38 39 37 35 35 35 36 37 37 37 38 38 37 37 37 38 38 39 41 42 43 44 45 45 46 46 46
13 16 19 22 23 23 23 24 23 18 14 14 15 21 29 34 36 38 39 40 40 40 39 37 36 36 35 35 36 35 36 36 37 38 39 41 43 44 46 47 47 47 46 46
10 10 14 17 19 21 21 22 21 21 20 18 15 22 30 32 33 35 38 40 41 41 40 38 36 34 33 33 33 33 34 35 36 38 40 42 43 45 47 47 48 48 48 48
15 11 12 14 16 18 19 19 20 24 23 21 18 22 29 29 30 32 34 37 38 38 36 34 33 32 31 32 32 33 34 35 36 38 40 42 44 46 47 48 48 49 50 51
14 12 10 12 13 14 17 19 21 23 22 22 20 23 28 27 30 32 33 33 31 30 30 30 31 31 31 32 32 34 35 36 38 39 41 43 44 46 47 49 50 52 53 54
14 14 13 12 11 13 15 18 20 23 24 24 23 27 31 31 33 33 31 29 29 28 29 30 31 32 33 34 35 36 37 39 40 41 43 45 47 48 50 51 53 54 55 56
11 12 12 12 13 16 18 18 19 22 24 25 24 29 31 32 34 33 33 32 31 30 31 32 33 35 36 37 38 39 40 42 43 45 46 48 49 51 53 54 55 55 56 57
10 12 13 14 16 18 19 21 21 21 23 25 27 31 33 33 34 34 32 31 31 32 32 34 35 37 39 40 42 44 45 46 47 48 50 52 53 54 54 55 56 56 56 56
10 12 14 16 16 16 16 17 19 21 22 25 28 32 35 37 36 35 34 32 31 32 33 35 38 40 42 44 45 46 47 48 50 51 52 54 54 54 54 55 55 54 55 55
9 12 14 16 17 18 17 19 21 23 24 27 31 34 36 36 36 37 35 32 33 33 35 37 40 42 43 45 46 46 47 47 49 49 49 50 51 52 52 52 52 52 53 54
11 12 14 15 17 17 18 23 24 26 28 30 32 34 37 40 41 40 38 37 37 36 36 37 37 39 41 42 42 44 45 46 46 46 45 45 46 48 49 50 50 51 52 53
11 12 14 15 16 17 23 25 26 27 30 31 33 35 38 39 41 42 41 40 38 39 39 38 38 37 38 39 40 41 41 40 42 43 44 45 46 46 47 48 49 49 50 50
11 12 12 13 15 19 23 24 24 26 29 30 31 33 35 36 37 38 38 37 37 36 36 36 37 37 38 39 39 40 41 41 42 43 44 46 46 47 47 48 48 48 49 49
12 13 13 14 16 20 24 24 24 25 28 28 29 30 30 31 33 34 34 34 33 33 34 34 35 37 38 38 39 39 40 41 42 43 44 45 46 46 47 47 47 47 47 47
14 14 15 16 17 20 21 23 23 24 25 25 25 26 27 28 27 28 29 29 29 30 30 32 33 34 35 36 38 39 39 40 41 42 43 44 44 45 45 45 45 45 44 44
15 16 16 17 17 19 18 19 21 22 23 23 23 23 23 23 23 23 25 26 27 28 29 30 31 32 33 35 36 37 38 39 40 41 42 42 43 43 43 42 42 41 40 39
16 16 17 18 18 18 17 17 18 19 20 20 21 21 21 21 21 22 23 24 25 27 28 29 30 31 32 33 34 36 37 38 39 40 40 41 41 40 40 39 38 37 36 34
18 17 17 18 18 17 16 17 17 17 17 17 18 19 19 20 20 21 22 23 23 24 25 26 28 29 30 31 33 34 35 36 37 38 38 38 38 37 36 34 33 31 29 28
18 18 18 18 17 17 16 16 16 16 16 17 18 18 18 18 19 19 20 20 21 22 23 24 25 26 27 29 30 31 33 34 35 36 36 35 34 32 30 27 25 23 21 20
18 18 18 17 17 17 16 16 16 16 16 17 17 17 17 17 17 17 17 18 19 20 20 22 23 24 25 26 28 30 32 33 33 33 31 29 27 25 22 20 18 16 15 14

GEFSCGP_500_meanwind_054.txt.gz
Wind_Speed
30 30 31 31 30 27 25 23 22 20 19 17 17 20 23 27 30 30 28 26 25 23 22 22 21 20 19 19 17 17 18 17 18 20 22 24 25 25 26 26 26 26 27 27
29 29 28 30 30 29 26 24 22 21 19 18 20 23 23 25 28 28 28 27 26 25 24 23 23 23 22 21 19 20 20 21 22 24 26 28 30 30 31 31 31 31 31 31
26 27 28 29 29 29 28 25 23 22 21 21 23 24 24 25 27 28 28 27 26 26 26 26 26 25 24 24 23 23 23 24 26 28 30 32 33 35 35 35 34 34 35 35
24 26 28 28 29 30 29 28 26 24 23 23 24 24 25 26 27 28 28 27 26 27 28 28 28 28 29 28 29 29 29 30 31 33 35 36 37 37 37 38 38 37 38 38
23 24 25 27 28 29 29 29 28 27 27 26 25 25 25 26 28 29 29 29 29 29 29 29 30 31 32 32 33 33 34 34 35 37 38 39 39 40 40 39 40 40 40 38
23 24 24 25 26 27 29 29 29 29 29 29 26 25 25 27 29 31 32 31 31 31 31 32 33 34 35 36 36 37 38 38 39 40 40 41 40 41 40 40 40 41 40 40
23 23 24 24 24 26 27 28 29 30 30 29 27 27 27 28 30 33 34 34 34 34 34 34 35 37 38 38 39 40 40 41 41 41 42 41 41 41 41 41 41 42 41 41
20 20 21 21 22 23 25 26 27 28 30 29 29 30 29 27 30 33 36 37 37 36 36 37 38 39 40 41 42 43 43 43 43 42 43 43 42 41 41 42 42 41 41 42
18 17 18 18 18 20 21 23 24 26 27 27 30 31 30 29 29 31 34 37 38 38 38 39 40 41 43 44 44 45 45 44 44 43 43 43 42 42 42 43 43 43 45 44
16 16 15 15 17 18 19 21 22 24 24 27 29 30 30 28 27 29 30 33 36 37 39 41 42 43 44 45 46 46 46 44 43 43 43 42 43 43 43 43 44 45 46 47
14 15 15 15 15 15 18 20 22 22 23 26 29 31 32 30 28 29 31 33 33 35 36 38 41 43 44 45 44 44 43 42 42 42 42 42 43 44 45 47 48 49 51 51
13 13 14 15 16 16 18 19 21 23 24 26 30 34 34 33 31 31 31 32 34 35 36 37 38 39 40 41 41 42 42 41 41 41 42 43 45 46 48 50 52 53 54 56
12 13 15 16 17 17 18 19 21 24 26 27 30 34 34 35 35 34 34 34 34 33 33 36 38 39 39 41 41 41 41 41 41 42 43 45 47 49 51 53 55 56 58 59
11 12 15 17 18 19 20 21 22 24 26 29 31 34 35 36 37 37 37 38 37 35 33 33 34 35 36 37 39 40 41 41 42 44 46 48 50 53 55 56 57 59 60 61
8 10 13 15 17 19 21 22 23 24 26 30 31 33 36 37 37 37 37 36 37 36 35 34 32 32 33 34 35 37 39 42 43 45 47 49 51 53 54 56 57 58 59 60
5 7 9 13 16 17 19 21 21 22 22 24 27 30 32 34 35 35 35 35 35 34 32 32 32 32 33 34 35 36 37 39 41 43 45 46 47 48 50 52 54 55 56 57
5 7 9 12 15 17 17 16 18 19 21 22 24 28 30 31 32 32 32 32 31 31 32 31 32 32 34 34 34 36 37 38 40 41 42 43 44 45 47 48 49 50 50 50
4 7 9 11 14 16 17 17 18 19 21 23 24 26 27 28 28 28 28 28 29 29 29 29 28 29 30 31 32 33 35 36 37 39 40 41 42 44 45 46 47 47 47 48
6 6 8 11 13 15 16 18 19 20 21 22 23 24 26 26 26 27 26 26 26 26 25 24 26 27 27 29 30 31 32 34 35 37 38 40 42 42 43 44 44 45 46 46
8 8 9 10 12 14 15 16 18 19 20 21 21 21 21 22 22 21 21 20 22 23 23 23 25 26 27 28 29 30 31 32 34 35 37 38 40 40 41 42 42 43 43 43
11 11 11 12 13 13 14 15 16 17 19 19 19 18 18 18 18 18 18 18 20 21 22 23 24 25 26 26 28 29 31 32 33 34 36 37 37 38 39 40 40 40 41 41
13 13 13 14 13 13 14 14 15 15 16 16 16 16 16 16 16 16 17 18 19 20 21 22 22 23 24 25 27 28 29 30 31 32 32 33 35 36 37 37 38 38 37 37
14 15 15 14 13 13 13 14 15 15 14 14 14 14 14 15 15 16 17 17 18 19 19 19 20 22 23 24 25 26 27 27 28 29 31 32 34 34 35 34 34 33 32 31
15 16 16 14 13 13 13 14 14 13 13 13 13 13 13 13 14 14 15 15 15 16 17 18 19 21 21 22 23 23 24 25 27 28 30 31 32 31 30 28 26 25 24 23
18 18 17 15 14 14 14 14 14 14 13 12 12 11 11 12 12 12 12 13 14 15 16 17 18 19 19 20 20 21 22 24 25 26 28 28 27 24 23 21 20 19 18 17
18 18 18 17 16 15 15 14 13 13 12 11 10 10 10 10 10 10 11 12 13 14 15 16 16 17 17 18 19 19 20 22 23 24 25 24 22 20 18 17 16 15 15 14

GEFSCGP_500_meanwind_060.txt.gz
Wind_Speed
25 26 26 27 27 28 28 27 25 26 27 28 28 30 36 38 38 37 36 33 29 26 24 23 21 20 20 20 21 21 19 19 22 23 23 25 27 28 27 28 27 27 27 29
23 24 25 26 27 26 27 26 25 26 26 27 27 29 32 35 36 36 36 35 31 29 27 25 23 22 21 22 22 23 22 21 23 24 26 29 31 32 32 33 31 32 32 31
22 23 25 25 26 26 26 25 25 26 27 27 27 28 29 32 33 34 35 35 34 32 30 28 27 26 24 23 22 23 25 25 25 27 29 32 33 34 35 36 34 34 34 35
20 23 24 25 25 26 25 25 25 26 27 26 27 27 27 28 30 33 33 34 35 33 32 31 29 28 28 26 25 26 27 27 28 31 33 33 33 35 36 35 35 35 35 35
19 22 24 25 25 25 26 27 27 27 27 26 26 26 27 27 28 30 31 32 34 34 34 33 31 30 30 29 28 28 29 30 31 34 34 34 36 37 37 37 37 36 35 35
18 21 23 24 25 25 26 28 28 28 27 27 26 27 27 27 27 28 29 31 33 34 34 33 33 33 32 32 31 31 33 33 34 34 35 37 38 39 38 38 38 37 37 37
17 19 21 23 25 25 26 28 28 28 28 28 27 28 29 28 29 29 30 31 33 35 35 36 36 36 35 34 34 35 36 37 38 38 39 39 40 41 40 39 40 41 40 40
16 18 20 21 22 23 24 26 27 28 28 28 28 29 29 30 30 30 31 31 32 33 35 36 37 37 37 37 38 39 39 40 40 41 42 43 43 44 44 44 44 44 44 43
15 16 18 20 21 22 23 24 26 26 27 28 30 30 30 30 31 32 32 32 33 34 36 38 38 39 40 40 41 41 42 42 42 43 45 46 47 47 47 47 46 45 44 44
15 16 17 18 20 21 23 24 25 26 26 27 29 31 31 30 31 33 34 35 35 35 37 38 40 40 42 42 42 42 42 43 45 45 47 48 49 49 49 48 47 47 46 45
15 16 16 18 20 20 22 23 24 25 27 28 29 31 31 32 32 34 35 36 37 38 39 39 39 39 41 42 43 43 43 44 45 46 47 48 48 48 48 48 48 48 47 47
13 14 16 17 18 19 20 22 23 25 26 28 29 31 31 32 33 34 36 37 38 39 40 40 40 39 39 40 40 41 43 43 44 45 46 47 48 48 48 49 49 49 49 49
12 12 14 15 16 18 19 20 22 24 26 28 30 31 31 31 32 33 35 36 37 38 38 38 39 38 38 38 38 39 40 41 43 45 46 46 46 47 47 47 48 49 50 51
9 10 11 13 14 16 17 18 20 22 24 26 28 30 31 31 33 34 35 36 37 38 39 39 38 38 37 36 36 37 37 38 39 40 42 43 44 44 45 46 47 49 50 51
6 7 9 11 13 15 17 18 19 21 23 26 27 29 31 31 33 34 35 35 36 37 37 37 37 36 36 35 34 34 34 34 34 35 36 38 39 39 41 43 45 47 50 51
3 5 8 10 12 14 16 17 19 21 22 25 26 28 28 29 30 30 31 31 32 32 33 33 33 32 32 32 32 31 31 31 32 33 35 36 37 39 40 43 45 46 48 50
3 5 6 8 11 13 15 16 18 20 21 23 24 26 26 27 28 28 28 28 28 29 29 29 28 28 28 28 28 29 29 29 31 32 34 35 37 38 40 42 43 45 47 48
5 6 7 8 10 12 14 15 17 18 20 21 22 24 25 25 25 26 26 26 25 25 25 25 25 25 25 26 26 27 29 30 31 32 33 35 37 38 40 41 42 44 45 47
6 8 9 9 10 11 12 14 16 17 18 19 20 20 20 21 22 23 22 21 22 22 22 22 23 23 24 25 26 27 28 29 31 32 34 35 36 38 39 40 42 44 45 46
7 8 9 10 11 12 13 14 15 16 16 16 17 18 19 19 20 20 20 19 19 20 20 20 22 23 24 24 26 27 28 28 30 31 33 34 36 37 38 39 41 42 43 44
9 10 11 11 12 13 13 14 14 14 14 15 15 16 16 16 16 17 17 17 18 18 19 20 20 21 22 23 24 25 27 28 30 31 32 33 34 35 36 37 39 40 41 41
10 11 12 13 13 13 14 14 13 14 14 14 14 14 14 14 15 15 15 15 16 17 18 18 19 20 21 22 24 25 27 28 28 29 29 30 31 32 34 35 36 36 36 35
11 13 13 14 13 14 14 14 14 14 14 13 13 13 13 13 13 14 14 15 15 15 16 17 18 18 20 21 23 24 25 25 25 25 26 27 28 30 31 32 31 31 30 28
12 13 14 14 14 15 15 14 14 14 13 12 11 11 11 11 11 12 13 12 13 13 14 15 16 17 19 20 21 21 22 22 22 23 24 25 26 26 26 26 25 25 24 23
13 14 15 15 15 15 15 15 14 13 12 12 11 10 9 9 9 9 10 10 11 12 13 14 16 17 18 19 19 19 19 19 20 21 21 22 22 23 23 22 21 21 20 19
14 15 16 16 16 16 15 14 13 13 12 11 10 9 8 8 8 9 9 10 12 13 14 15 16 17 17 16 16 16 17 18 18 18 19 19 19 20 20 19 18 18 17 16

GEFSCGP_500_meanwind_066.txt.gz
Wind_Speed
19 19 21 23 24 26 26 26 26 28 28 27 28 29 29 29 32 33 34 34 32 31 28 26 24 25 25 25 25 25 25 24 24 25 26 27 29 30 31 31 32 34 35 36
17 19 21 23 24 24 25 24 25 26 26 26 26 26 27 29 30 32 33 33 31 31 29 28 27 26 26 26 26 28 27 27 28 29 30 29 31 32 34 35 36 37 38 39
16 18 21 22 23 23 24 24 24 25 25 24 24 24 25 27 29 30 31 32 33 32 30 30 29 29 28 28 28 28 29 29 30 31 33 32 34 36 37 38 38 39 41 42
15 17 19 21 22 23 22 24 25 24 21 21 22 20 25 25 27 28 29 30 31 31 32 32 32 32 31 31 32 32 31 31 32 33 33 34 34 36 37 38 38 39 41 41
13 15 17 20 22 24 24 24 23 23 22 20 21 19 22 24 25 26 27 29 30 31 33 34 34 34 34 35 35 34 34 34 34 35 34 35 37 39 39 41 41 41 41 41
11 13 16 19 22 24 24 23 22 21 19 19 20 19 20 22 22 23 24 26 28 30 31 33 34 34 35 35 35 35 36 36 35 35 36 36 38 40 41 41 42 42 42 42
8 11 14 18 20 22 23 22 18 17 18 19 21 20 20 21 21 22 22 24 25 27 29 31 32 34 34 36 36 37 38 37 37 38 38 39 39 41 43 43 43 44 44 43
6 8 13 17 19 20 22 22 16 15 16 19 22 22 21 20 21 21 22 23 24 26 28 30 32 35 36 36 37 38 38 39 39 40 41 42 42 43 44 45 45 46 47 46
9 8 12 15 18 20 20 21 20 17 17 17 21 23 21 21 21 21 22 24 25 26 28 30 31 33 36 37 37 38 39 40 41 42 43 43 44 45 46 46 47 47 47 48
11 11 12 14 16 17 18 18 20 17 14 16 20 22 22 21 22 22 23 25 27 28 29 30 32 33 34 36 37 39 40 42 42 43 43 44 44 45 46 47 48 47 48 49
10 11 11 12 13 14 16 17 18 17 16 14 16 20 21 22 23 24 25 27 28 30 31 32 33 34 36 37 39 40 41 41 42 43 43 44 44 45 46 46 47 48 49 50
9 10 10 10 11 12 14 15 16 16 18 18 16 21 21 22 24 24 26 27 29 31 32 33 35 36 37 38 39 40 41 42 42 43 43 43 43 44 44 45 46 47 48 48
8 8 7 7 8 11 13 14 16 17 18 19 19 23 23 24 25 26 27 29 29 31 33 34 35 36 37 38 38 39 39 40 40 41 41 41 42 42 43 43 45 46 46 47
6 6 7 8 9 10 12 14 15 16 17 20 22 25 24 25 26 27 29 30 31 31 32 32 33 34 35 36 36 37 37 37 37 38 39 40 40 41 41 42 43 43 44 44
4 4 5 7 8 9 11 13 15 17 19 21 23 24 24 26 27 28 29 30 31 31 31 32 32 32 32 33 33 33 34 35 36 36 37 38 39 39 40 41 42 43 42 43
2 3 4 5 7 9 10 12 14 16 18 20 22 23 24 25 26 27 28 28 28 29 30 30 29 29 30 30 31 31 32 33 34 34 35 36 36 38 39 40 41 42 42 43
1 2 4 5 7 9 10 12 14 15 17 18 20 21 22 23 24 25 26 27 27 27 26 26 27 27 27 27 28 29 30 31 31 32 33 34 35 37 37 38 39 40 41 42
2 1 3 4 6 9 10 12 13 14 16 17 19 20 21 21 22 23 24 24 24 23 23 24 25 25 25 25 26 27 28 29 29 30 31 31 33 34 35 36 37 38 39 40
3 3 3 5 7 8 10 11 12 14 14 15 17 18 19 19 20 21 21 21 21 22 23 23 23 23 24 24 25 26 26 27 28 28 29 29 30 31 32 33 34 36 37 38
4 4 5 6 7 9 10 11 11 12 12 14 15 16 17 18 18 19 19 20 20 21 21 21 21 22 23 24 24 25 26 25 26 26 27 28 29 30 31 32 32 33 34 35
5 6 6 7 7 8 9 10 10 11 12 13 14 14 15 16 17 17 17 17 18 18 19 20 21 22 22 23 24 24 23 23 24 25 25 26 27 27 28 28 29 30 31 32
6 7 8 8 8 9 10 10 10 10 11 12 12 12 12 13 13 13 14 15 15 17 18 19 19 20 20 21 20 20 21 21 22 22 23 23 23 24 24 25 26 27 28 28
7 8 9 9 9 10 10 10 10 11 11 12 12 11 11 11 11 11 12 12 13 13 14 15 16 17 18 18 18 19 19 20 20 20 20 20 21 21 22 23 24 24 24 24
8 10 10 10 11 11 11 11 12 12 12 12 11 10 9 9 9 9 9 10 10 11 12 13 14 15 16 17 17 17 17 17 18 18 18 18 19 19 20 20 21 20 20 20
9 10 11 12 12 12 13 12 13 13 13 12 11 9 8 8 8 9 9 9 10 11 12 13 14 15 16 16 15 16 16 16 16 16 16 16 16 17 17 18 18 17 17 17
9 10 12 13 13 13 14 13 13 13 13 12 10 9 9 9 9 9 9 10 10 11 12 13 14 14 14 14 14 14 14 14 14 14 14 14 15 15 15 15 15 14 14 13

GEFSCGP_500_meanwind_072.txt.gz
Wind_Speed
16 16 16 15 15 14 13 13 14 15 19 21 21 24 26 28 30 30 30 31 32 32 32 30 28 27 24 23 21 21 21 21 22 22 23 24 25 26 27 27 27 27 28 30
11 11 13 14 15 17 17 16 17 18 20 21 22 26 29 30 30 30 30 32 30 30 30 28 27 26 25 24 24 23 23 24 25 25 26 27 27 28 29 29 29 30 31 32
11 11 12 15 18 20 20 18 17 17 19 21 23 27 29 30 32 31 31 32 30 28 26 26 25 25 25 26 26 25 25 25 27 28 29 30 30 29 30 31 32 33 33 33
10 12 13 15 17 18 18 19 17 17 18 20 23 25 27 28 31 31 30 30 28 25 25 24 25 26 27 27 27 27 27 27 28 30 30 31 32 33 33 33 33 33 33 34
8 10 11 13 14 15 15 17 18 18 18 17 19 22 23 25 28 29 28 28 28 27 26 25 25 26 27 28 28 28 27 28 29 31 32 33 35 36 36 36 35 35 34 34
10 10 11 12 13 16 16 16 18 17 17 20 21 23 24 26 27 26 25 26 26 26 25 25 25 26 28 28 29 30 29 30 32 34 35 36 38 39 39 40 38 37 37 37
7 8 9 12 14 16 17 16 14 15 18 19 18 22 27 25 25 24 23 23 24 24 24 25 25 26 27 28 29 30 31 33 34 37 38 39 40 41 42 42 41 40 39 39
7 9 9 12 14 14 17 19 17 15 16 18 20 28 29 26 23 20 20 22 22 23 23 24 24 25 27 28 29 30 32 34 35 37 39 40 40 41 42 42 42 41 41 41
6 6 8 10 13 14 14 18 16 17 18 19 23 29 30 26 26 23 21 22 22 22 23 23 24 26 27 28 29 30 32 33 35 37 38 39 40 41 42 42 42 42 43 43
3 6 7 9 12 14 13 14 16 16 16 18 22 25 26 26 24 25 24 23 23 24 24 25 26 27 28 29 30 31 32 34 36 37 39 40 41 42 43 43 44 44 45 45
3 5 8 8 11 13 15 15 16 14 14 16 18 21 24 24 23 22 23 24 25 26 27 27 28 30 31 32 33 34 35 36 37 38 40 41 42 43 43 44 45 46 45 46
6 9 11 11 11 12 13 14 15 18 17 16 19 19 18 18 19 20 20 22 24 25 27 28 29 31 32 33 35 36 37 38 39 40 41 41 42 43 44 44 45 45 45 46
8 7 9 9 11 12 12 14 15 17 17 19 22 22 21 16 16 18 19 21 23 25 26 28 29 30 32 33 35 36 37 38 39 40 40 41 41 42 43 44 44 45 46 46
6 6 8 10 12 10 10 11 14 17 20 23 25 23 21 19 18 19 20 21 23 25 26 28 29 31 33 34 34 36 36 36 37 37 38 39 40 41 42 43 44 44 45 45
4 3 4 5 8 9 9 11 14 17 20 24 25 25 23 21 22 22 22 23 25 26 27 28 30 32 33 33 34 34 35 36 36 37 38 38 39 40 41 41 42 43 43 44
2 1 1 1 1 4 5 8 12 14 17 21 24 23 23 24 24 23 23 24 24 26 27 28 30 31 31 31 32 33 34 35 35 36 36 37 38 38 38 39 39 39 40 40
1 1 2 2 4 5 7 9 13 14 17 20 22 23 24 24 24 24 24 24 25 26 26 26 27 28 28 29 30 30 31 32 33 33 33 34 34 34 35 35 35 36 37 38
0 0 0 2 5 8 9 11 14 15 17 19 20 22 23 24 24 24 23 23 24 24 24 24 25 26 26 26 27 28 29 29 29 29 29 29 29 30 31 32 32 33 34 35
2 2 2 3 6 10 11 13 15 16 16 17 19 20 21 21 22 22 22 23 23 23 23 24 23 24 24 24 25 25 25 26 26 26 26 26 27 27 28 29 30 30 31 31
3 3 3 5 7 11 12 13 14 15 15 16 17 19 19 20 20 20 20 21 22 22 22 23 23 23 24 23 23 24 24 23 23 23 24 24 25 25 26 26 27 27 27 28
3 4 5 6 9 10 12 13 14 15 15 16 17 18 19 19 18 18 18 18 19 19 20 21 22 22 22 22 22 22 21 21 21 22 22 23 23 23 23 24 24 24 24 24
4 5 6 7 9 10 13 14 14 15 15 16 16 16 17 17 17 17 17 17 17 18 18 19 19 19 19 19 19 19 19 19 20 20 20 20 21 21 21 21 20 20 20 21
4 6 7 8 9 11 12 13 14 14 14 15 15 15 15 15 16 15 15 15 15 16 16 16 16 17 17 17 17 17 18 18 18 18 18 19 19 18 18 18 17 17 17 17
4 6 8 9 10 12 13 13 14 14 15 15 15 15 15 15 14 14 14 14 13 14 14 15 15 15 16 16 16 16 16 16 17 17 17 17 17 16 16 15 15 15 15 15
4 7 8 10 11 12 13 14 14 15 15 15 15 15 14 13 12 12 12 12 12 13 14 15 15 15 15 15 15 15 15 15 15 15 16 15 15 14 14 13 13 12 13 13
4 7 9 10 12 13 14 15 15 15 15 15 15 15 13 13 12 12 12 12 13 14 15 15 14 14 14 14 14 14 14 14 13 13 13 13 13 12 12 11 10 10 10 10

GEFSCGP_500_meanwind_078.txt.gz
Wind_Speed
17 17 16 16 16 15 15 16 16 16 16 19 22 22 25 30 33 35 36 38 36 34 32 32 31 30 28 27 27 25 23 22 21 21 21 20 20 20 19 19 20 19 20 22
14 13 14 16 17 17 17 17 16 17 17 18 19 21 23 26 28 30 32 34 34 33 31 31 32 30 31 29 27 23 24 25 23 21 21 21 21 21 21 21 21 21 23 24
11 11 13 16 17 18 18 17 16 15 16 16 17 20 21 22 25 27 28 29 30 30 30 30 31 29 28 26 27 25 24 24 24 23 22 22 22 22 22 22 23 23 23 24
10 11 14 15 16 16 16 17 17 16 17 18 18 19 21 21 23 25 26 27 28 29 29 29 30 30 29 27 25 23 22 23 23 23 23 23 23 23 23 23 24 25 26 25
8 10 13 14 14 15 16 17 17 16 18 20 20 20 21 22 23 24 25 26 28 29 29 29 29 29 29 27 24 23 22 23 22 22 22 23 23 24 24 25 26 27 28 27
7 9 10 11 14 15 15 17 17 16 17 20 20 22 21 22 24 25 26 26 27 28 28 28 29 29 29 29 26 23 23 24 24 24 24 25 24 26 27 28 29 30 30 30
7 7 9 12 13 14 15 17 17 16 18 18 18 22 23 22 24 25 24 25 26 28 28 29 29 28 28 27 26 24 24 24 25 25 26 27 27 28 29 29 30 30 30 31
7 6 9 12 13 15 16 16 16 14 15 17 18 21 22 23 24 24 23 23 24 25 26 27 27 26 24 24 25 25 25 25 25 26 27 28 28 29 30 30 31 32 32 32
6 3 6 10 12 15 16 16 15 14 15 16 18 19 21 21 21 22 22 22 23 23 24 24 24 25 24 24 25 26 26 26 26 26 27 28 29 30 31 32 32 33 34 35
5 2 3 7 12 14 15 16 16 16 15 15 17 18 19 20 21 22 21 21 22 22 23 23 24 24 24 24 25 25 26 27 28 29 29 30 30 31 32 33 35 36 37 37
3 2 2 6 10 12 14 15 15 15 14 16 16 17 17 18 18 18 19 21 21 20 21 23 25 26 26 26 26 26 28 28 29 30 31 32 33 34 34 35 37 37 38 39
3 2 3 6 10 13 14 14 14 14 15 16 16 17 16 15 16 16 16 15 16 19 21 22 24 25 26 27 27 28 29 30 31 32 32 33 35 36 36 37 38 38 39 40
2 2 4 7 10 12 13 12 12 13 14 14 15 17 17 16 15 14 14 15 16 18 20 23 24 25 27 28 29 29 30 31 32 33 34 34 35 36 37 37 38 39 39 40
2 2 4 8 10 10 10 10 11 12 13 14 15 16 17 16 15 15 15 14 15 17 18 20 22 24 26 27 28 30 31 32 33 33 34 35 35 36 37 38 38 38 38 39
1 2 3 7 10 9 9 10 10 12 13 15 16 16 16 16 17 16 15 13 15 17 18 19 20 22 25 26 28 29 31 32 33 34 35 35 35 35 35 35 35 35 35 35
1 2 3 6 8 8 7 8 9 11 13 14 15 16 16 16 17 16 15 15 16 17 18 18 19 21 23 25 26 28 29 31 32 32 32 33 33 33 32 33 33 33 33 33
0 0 3 4 4 4 7 8 9 11 11 12 14 15 16 16 17 16 17 16 15 16 17 18 19 21 22 23 25 26 27 28 29 29 30 30 30 30 30 30 30 30 30 30
1 1 2 2 4 4 5 6 8 9 11 12 14 15 16 16 16 16 16 16 16 17 17 18 20 21 22 23 24 25 25 25 26 26 27 27 26 26 26 26 26 26 26 27
2 2 2 3 2 3 5 7 8 10 12 13 14 14 15 16 17 17 17 16 17 18 18 18 19 20 21 22 23 23 23 23 24 24 23 23 23 23 23 23 24 24 25 25
3 3 4 4 4 6 8 9 9 10 12 13 14 14 15 15 15 16 15 15 16 16 17 18 19 20 21 21 21 22 22 22 22 21 21 21 21 22 22 22 22 23 22 22
3 4 5 6 6 8 10 11 12 12 13 14 14 14 14 14 15 15 14 14 14 15 16 17 17 18 19 19 19 20 20 20 20 20 20 20 21 21 21 21 21 21 20 20
4 5 6 7 8 9 11 12 12 13 14 14 14 14 14 14 14 13 13 13 13 13 14 15 16 17 17 17 18 18 18 18 18 18 19 19 19 20 20 20 20 19 18 17
4 5 7 8 9 10 11 12 13 13 13 14 14 14 14 14 13 13 12 12 12 12 13 14 15 15 15 15 15 16 16 16 16 17 17 18 18 18 18 18 17 16 15 15
5 6 7 8 10 11 12 13 13 14 14 15 15 14 14 13 12 12 12 12 12 12 13 13 14 14 14 14 14 14 14 14 15 16 16 16 16 16 15 15 14 14 13 13
5 6 7 9 10 11 13 13 14 14 15 15 15 14 14 13 12 12 12 12 12 13 13 14 14 13 12 12 12 12 12 12 13 14 14 13 13 13 13 12 12 11 11 11
5 6 7 9 11 12 14 15 15 15 15 15 15 15 14 13 13 13 13 13 13 13 13 13 12 11 10 9 9 10 10 11 11 10 10 10 10 9 9 9 9 9 9 9

GEFSCGP_500_meanwind_084.txt.gz
Wind_Speed
20 20 20 21 21 22 22 22 22 22 25 28 29 29 29 30 33 34 35 36 36 35 33 32 30 28 27 27 26 26 24 21 22 23 24 25 26 25 27 27 27 27 26 26
18 18 18 18 19 20 20 20 20 21 24 26 27 27 26 27 29 31 32 33 34 34 33 32 30 30 29 27 27 27 27 24 23 24 25 25 24 23 26 26 27 27 26 25
15 16 16 17 17 17 17 17 18 20 22 24 25 25 23 23 25 27 29 30 31 31 31 30 30 30 29 28 27 27 26 24 25 26 26 25 24 23 25 25 26 27 26 25
14 15 15 15 15 15 14 16 18 19 20 21 22 22 21 20 22 24 26 27 28 28 28 29 29 30 29 28 27 26 24 24 25 25 25 24 24 23 24 25 26 27 27 26
13 14 14 13 13 14 13 15 17 18 18 18 18 20 19 19 20 22 23 24 25 25 26 27 28 28 28 27 26 26 24 23 24 23 24 23 23 23 23 24 25 26 25 25
12 13 13 12 12 13 13 14 16 16 17 17 16 18 16 17 18 20 21 22 22 23 24 26 26 27 27 27 25 24 24 24 24 25 24 22 22 23 23 23 23 23 23 24
10 10 11 11 11 12 13 13 14 15 15 16 16 17 16 16 17 18 19 20 21 22 22 23 25 25 26 26 25 25 24 23 23 24 25 23 22 22 22 23 24 24 24 25
9 9 10 10 10 12 14 13 13 13 14 15 15 15 14 15 15 16 18 19 20 22 22 22 23 24 24 24 24 24 24 24 23 23 23 23 22 21 22 23 24 25 25 26
9 8 9 10 11 12 13 13 13 13 13 14 14 13 13 14 14 16 17 17 19 21 21 21 21 22 23 23 23 23 23 23 24 24 25 24 23 23 24 25 25 26 26 27
9 9 9 10 10 11 12 12 13 12 12 13 13 12 13 14 14 15 17 18 18 19 19 20 21 21 22 23 23 23 23 24 24 25 26 25 25 25 27 27 27 28 28 28
9 9 8 10 11 11 10 11 12 12 12 13 14 13 13 13 14 13 14 15 15 16 17 18 19 20 20 20 21 23 23 25 26 27 27 27 27 27 28 28 28 29 30 31
8 9 8 8 9 9 9 9 10 11 12 12 14 13 12 12 12 12 12 12 13 14 16 17 19 20 21 22 22 23 24 25 26 27 28 29 29 29 30 30 30 31 32 33
8 8 8 7 7 9 9 9 10 10 11 12 13 12 12 12 13 12 12 11 13 14 16 17 18 19 21 23 24 24 26 27 27 28 28 29 29 29 29 30 31 32 33 34
7 8 7 6 6 8 8 9 9 10 12 12 12 12 11 12 12 12 12 12 13 14 16 17 18 18 20 22 24 26 26 26 27 28 28 28 28 29 30 31 31 32 33 33
7 6 6 6 5 7 7 8 9 10 11 11 11 11 10 10 10 11 11 12 14 15 16 16 17 19 20 21 23 25 25 26 26 27 27 28 28 29 29 30 31 31 32 32
6 5 4 4 5 6 7 7 9 10 11 11 11 10 9 10 11 11 12 12 13 15 15 16 17 18 20 21 22 23 23 24 24 25 26 26 27 28 28 28 28 29 29 29
5 4 3 3 4 5 7 8 9 10 11 11 11 11 11 12 12 12 13 13 14 14 14 15 16 17 18 19 20 21 21 22 23 23 24 24 25 25 26 26 26 26 26 26
5 4 3 3 4 6 7 8 9 10 10 10 11 11 12 12 12 13 12 12 12 14 15 15 16 17 17 18 19 20 21 22 22 22 22 23 23 23 23 23 24 24 24 24
5 3 2 3 4 6 6 7 8 9 10 10 10 11 11 11 11 11 11 11 12 14 15 16 17 18 19 19 19 19 20 20 20 21 21 21 21 21 22 22 22 22 22 22
4 2 2 3 4 5 6 7 8 9 9 10 10 10 10 11 11 11 10 11 12 13 14 15 17 18 18 18 19 19 20 20 20 20 20 20 20 21 21 21 21 21 21 21
2 0 1 2 4 5 6 7 8 9 9 9 9 9 10 9 10 10 10 10 11 12 13 14 15 15 16 16 17 18 18 18 19 19 19 19 19 19 19 19 19 19 19 19
3 1 2 3 4 5 7 8 9 9 9 10 10 10 10 10 10 10 10 10 11 11 12 13 14 14 15 16 16 16 16 16 16 16 16 16 17 17 17 17 18 18 18 17
3 2 2 4 5 6 7 8 9 9 10 10 11 10 10 10 10 10 10 10 10 10 11 12 13 14 14 14 13 13 13 13 13 14 14 15 15 16 16 16 16 15 15 14
3 2 2 4 5 6 8 9 9 10 11 11 11 11 10 10 10 10 10 10 10 10 10 11 11 12 11 11 11 10 11 12 12 12 13 13 13 13 13 12 12 12 11 11
4 3 3 4 6 7 9 10 10 11 11 12 11 11 11 11 11 11 11 11 11 11 10 10 10 9 8 8 9 9 9 9 10 10 11 11 10 10 10 9 9 9 8 8
4 3 3 5 7 9 10 10 11 11 12 12 12 12 12 12 12 12 12 11 11 11 10 9 8 7 7 7 6 6 6 7 8 8 8 8 8 7 7 7 7 6 6 7

GEFSCGP_500_meanwind_090.txt.gz
Wind_Speed
16 16 16 17 18 18 18 18 18 20 22 22 23 24 24 25 26 27 28 30 31 31 31 32 32 33 33 33 31 29 28 27 26 24 23 22 22 24 25 26 27 27 28 29
15 15 16 17 16 16 16 16 17 19 20 21 22 23 23 24 25 26 28 29 31 31 32 32 33 33 34 33 33 31 30 29 27 25 24 24 23 23 24 26 27 27 28 29
13 14 15 15 15 15 15 15 16 17 18 18 20 20 21 22 23 24 26 28 29 30 31 32 33 34 34 33 33 32 31 30 29 26 25 24 24 24 25 25 25 23 24 27
13 14 15 14 14 14 14 14 15 16 16 16 18 18 19 20 21 22 24 25 26 27 29 30 31 32 33 33 33 33 32 31 29 28 27 26 26 25 24 24 23 22 23 24
14 14 14 13 13 14 13 14 14 15 16 16 16 17 18 18 19 20 21 23 24 25 27 28 30 31 31 31 32 32 32 31 30 29 29 29 27 26 25 24 25 24 23 23
13 13 12 12 13 13 12 12 13 13 14 14 13 14 13 13 15 17 19 20 21 23 24 25 27 28 29 30 31 31 31 30 29 29 28 27 26 26 25 25 25 24 25 25
11 12 12 12 12 12 11 11 11 12 12 12 12 14 13 11 12 14 17 18 20 21 22 23 24 25 27 28 30 30 30 30 30 29 28 27 27 26 25 25 24 24 25 25
9 10 12 11 10 10 10 9 10 11 10 12 13 13 13 12 12 13 15 17 19 20 21 22 23 25 26 27 28 29 29 30 30 29 28 27 26 24 24 24 23 24 24 25
8 9 10 10 9 9 9 10 11 11 11 13 13 14 13 12 12 12 14 16 18 20 22 22 23 25 26 27 28 28 28 28 28 28 27 27 26 25 24 24 24 24 24 25
8 9 9 9 9 9 9 10 11 10 12 13 14 14 12 11 11 11 12 14 16 18 21 23 23 24 25 27 28 29 28 29 29 28 28 28 27 26 25 25 25 26 27 27
8 9 9 9 9 9 10 10 11 12 13 13 13 13 13 12 12 12 13 12 14 16 18 21 22 23 24 26 27 28 28 28 29 28 28 28 28 27 26 26 27 27 27 27
9 9 8 9 9 8 9 10 11 11 12 13 13 14 12 12 12 12 13 13 13 15 16 18 20 22 22 24 26 27 27 27 28 29 29 29 29 28 28 28 28 28 28 28
8 8 7 8 9 8 9 10 10 10 11 12 12 14 12 11 12 12 11 12 13 13 14 15 17 19 20 22 23 24 25 26 27 27 27 27 28 28 28 28 28 27 28 28
7 7 7 8 9 9 8 8 9 10 11 12 12 13 12 12 12 12 12 12 13 13 14 14 16 18 19 21 22 23 22 23 24 26 26 27 27 28 27 27 27 27 28 29
7 7 7 8 8 8 7 8 9 10 10 12 13 13 12 12 12 13 12 13 13 14 15 16 16 18 18 19 20 21 22 23 24 24 25 25 25 25 25 26 27 27 27 28
7 7 6 6 6 7 7 8 9 10 12 13 13 12 12 12 12 13 13 13 13 14 15 16 17 18 19 19 19 20 21 22 22 23 23 23 24 24 24 25 25 26 27 28
6 6 5 5 6 6 8 9 10 11 12 13 13 12 12 12 13 13 13 13 13 14 15 15 16 18 18 18 19 19 19 21 22 22 22 22 22 23 23 23 24 24 25 26
6 5 5 5 6 6 8 9 10 11 12 12 12 12 12 12 13 12 12 13 13 14 14 15 17 17 17 17 18 19 20 20 21 21 21 21 21 22 23 23 23 22 23 23
5 5 5 5 6 7 9 9 10 11 11 12 12 12 12 12 12 12 12 12 13 13 14 15 15 16 17 17 18 19 19 19 18 18 19 19 20 20 20 20 20 20 21 21
6 5 5 5 6 7 8 9 9 10 10 11 11 10 10 11 11 11 11 12 13 13 13 14 14 15 16 17 17 18 17 16 16 17 18 18 18 18 18 18 19 19 19 20
6 5 4 4 5 6 7 7 8 9 10 10 10 9 9 10 10 10 10 10 10 11 12 13 13 14 14 15 15 15 15 15 15 16 16 16 16 17 17 17 17 17 18 18
5 4 4 3 4 6 6 7 8 9 9 9 8 8 8 8 9 9 9 9 9 10 10 10 10 11 11 12 12 12 12 13 13 13 14 14 14 14 15 15 15 15 16 16
5 4 3 3 3 4 5 6 8 8 9 8 8 7 7 7 8 8 8 8 8 8 8 7 8 8 8 8 8 9 10 10 11 11 12 12 12 12 12 13 13 13 13 14
6 5 3 2 2 4 5 6 7 8 8 8 8 8 7 7 7 7 7 7 7 6 4 5 5 5 6 6 6 6 7 8 8 9 9 10 10 10 11 11 11 11 11 11
6 4 2 1 2 3 5 6 7 7 7 7 7 8 7 7 7 7 7 7 7 5 3 3 3 3 3 4 4 5 5 6 6 6 7 7 7 8 8 8 8 8 8 8
7 4 2 0 2 4 5 6 7 7 7 7 7 8 8 8 8 7 7 7 7 6 5 4 4 4 3 3 3 3 2 2 3 3 3 4 5 5 5 5 5 5 6 6

GEFSCGP_500_meanwind_096.txt.gz
Wind_Speed
9 9 9 9 11 13 14 16 17 16 18 22 21 21 20 25 25 26 26 26 28 28 29 31 32 33 33 33 33 32 32 32 31 29 28 28 27 25 25 24 22 21 22 23
8 8 9 11 14 15 15 14 14 16 18 21 21 21 20 24 25 26 26 26 29 28 29 31 32 34 35 35 35 33 34 34 34 32 30 30 28 27 26 25 24 23 22 24
9 8 12 13 14 13 13 13 14 16 18 20 21 21 20 22 23 25 25 27 28 28 30 32 33 34 35 35 35 35 35 35 35 33 32 30 30 28 26 26 25 25 26 25
9 10 13 13 12 12 12 12 13 15 17 17 19 22 20 21 24 25 25 26 26 27 29 31 33 34 33 34 35 35 35 35 35 34 34 32 31 30 28 27 26 26 25 24
9 10 12 12 12 12 12 13 15 15 16 16 16 20 18 18 22 24 22 24 25 26 27 29 31 32 33 33 34 35 35 35 35 34 34 33 32 31 30 29 28 27 26 26
7 9 11 11 11 12 12 12 13 14 16 17 15 18 19 20 20 21 19 22 23 24 26 27 29 31 32 33 34 35 35 35 35 35 34 34 33 31 30 29 28 27 27 27
8 11 12 12 11 11 12 13 14 16 16 15 15 18 19 20 20 19 19 21 23 23 24 26 27 29 30 32 32 33 34 35 35 34 34 34 33 32 31 30 29 28 28 27
9 12 11 11 12 11 12 12 14 16 16 16 17 16 18 19 19 19 20 20 20 20 21 23 24 26 28 29 30 31 31 32 33 33 33 33 32 32 32 32 30 30 29 28
10 11 10 11 12 12 10 11 13 16 18 19 17 16 19 19 19 19 19 19 19 19 20 21 22 23 25 27 28 29 30 30 31 32 32 31 31 32 31 31 30 29 28 28
13 13 11 9 11 11 11 10 12 13 17 18 17 19 19 19 19 18 18 18 17 17 18 20 20 22 24 25 26 27 28 29 30 30 31 31 31 31 31 31 31 30 30 29
13 13 11 10 11 11 11 13 13 14 15 17 19 20 19 17 17 15 16 17 17 18 18 18 20 21 22 24 25 26 27 28 29 30 30 31 31 31 30 31 30 29 29 28
14 14 13 13 13 11 11 13 14 15 15 16 18 21 20 18 18 17 16 16 16 16 16 18 19 21 23 24 25 26 27 28 28 28 29 30 30 30 30 30 30 29 29 29
13 13 13 12 12 11 12 11 12 13 15 17 18 20 19 17 18 17 15 16 17 16 16 17 18 20 21 23 24 25 26 27 26 27 27 28 29 29 30 30 30 29 29 28
12 12 12 11 10 8 8 8 11 12 15 18 19 19 19 18 18 16 16 16 17 18 17 17 18 19 19 20 21 22 24 25 25 26 26 27 27 27 27 26 27 27 27 29
12 11 10 10 9 9 9 10 12 14 16 18 19 18 18 18 18 17 17 17 17 17 17 17 16 17 17 18 18 19 20 22 22 23 23 24 25 24 24 25 26 26 26 26
11 10 9 8 8 8 9 10 13 15 16 17 18 18 19 19 18 18 18 18 17 17 17 16 16 17 17 18 19 19 19 19 20 21 22 22 22 23 23 23 23 23 24 24
9 9 9 8 7 7 9 11 13 15 16 17 18 18 19 19 18 19 18 18 17 16 16 16 17 18 17 17 17 17 18 19 19 19 19 20 20 21 21 21 21 21 21 22
9 9 9 8 7 9 10 10 13 16 16 16 17 18 18 18 18 18 18 17 16 16 16 17 17 17 17 17 17 16 16 17 17 17 18 18 18 18 18 18 18 19 19 20
10 9 9 8 8 10 10 9 13 16 17 16 17 17 17 17 17 17 17 16 15 16 17 17 16 16 15 15 15 15 16 16 16 16 17 17 17 17 16 16 16 17 17 18
9 9 9 7 9 11 10 10 13 16 17 16 16 16 16 16 16 15 15 15 15 15 15 15 15 14 14 14 14 15 15 14 14 14 15 15 15 15 15 15 15 16 16 17
8 8 8 8 10 10 9 11 14 15 16 16 16 16 16 16 16 15 14 14 14 14 14 13 13 12 12 13 13 13 13 13 13 13 13 12 13 13 14 14 14 15 15 16
7 8 9 9 9 9 11 13 14 15 15 15 16 15 15 15 15 14 14 13 13 13 13 12 11 11 11 11 12 11 11 11 11 12 12 12 12 13 13 13 13 13 14 14
9 10 8 8 9 10 11 12 13 14 14 14 15 15 14 14 13 13 13 12 12 12 11 10 9 9 9 10 10 9 9 9 9 10 10 10 11 11 11 11 11 12 12 12
9 8 8 7 8 8 9 10 11 12 13 13 14 14 14 13 13 12 12 11 11 10 9 8 6 6 6 6 6 6 6 7 7 7 8 8 8 9 9 9 9 9 9 10
7 5 6 6 6 7 8 9 10 11 12 12 13 13 13 13 12 11 11 10 9 8 6 5 4 5 4 3 3 4 4 4 4 5 6 6 7 7 7 7 7 7 8 8
7 4 5 5 5 6 7 8 9 10 11 12 12 12 13 12 11 11 10 10 9 7 6 5 5 5 5 5 4 4 3 3 3 4 4 5 5 5 5 5 6 6 6 7

GEFSCGP_500_meanwind_102.txt.gz
Wind_Speed
14 13 12 12 12 12 12 12 13 12 12 14 14 16 18 19 21 22 23 25 25 26 27 28 29 30 30 30 30 31 31 29 29 29 30 30 28 26 25 22 20 19 19 19
14 12 11 12 11 12 13 13 11 11 12 16 17 18 19 21 22 23 24 25 26 27 28 28 29 30 30 30 30 31 31 31 31 31 31 30 30 28 25 23 20 20 19 20
14 13 12 10 10 11 13 13 12 12 13 17 19 21 21 23 23 24 24 24 25 25 25 27 28 28 30 30 31 31 31 31 32 32 31 31 29 28 27 25 22 21 21 21
14 15 13 11 11 11 12 12 12 13 14 16 19 20 20 23 24 24 24 24 23 23 24 25 27 28 29 30 30 30 31 31 32 32 32 31 29 28 26 25 24 22 21 20
13 15 14 12 10 10 11 12 12 14 15 16 18 20 20 23 23 23 23 23 24 24 24 25 26 27 28 30 31 31 31 31 31 31 31 31 30 29 28 26 25 25 24 23
13 14 13 11 9 10 11 12 13 13 14 16 17 20 20 21 22 22 22 22 23 24 24 24 24 25 27 28 29 30 30 31 30 31 31 31 30 29 27 26 26 26 25 24
13 13 12 10 9 10 11 12 12 12 12 13 15 18 19 18 19 20 21 21 21 21 22 23 24 24 25 26 27 28 29 30 30 31 30 30 30 29 29 28 27 26 26 26
13 12 12 12 10 10 10 11 12 13 13 12 13 17 17 17 17 17 17 17 18 19 19 20 21 23 23 23 24 26 27 28 28 29 29 29 29 28 28 28 28 27 26 26
13 13 12 12 11 11 11 11 11 12 12 13 15 16 17 17 16 15 16 16 18 19 18 18 19 20 21 22 23 24 25 26 27 28 28 29 29 28 28 28 28 28 27 26
13 13 12 12 11 11 11 11 12 12 14 15 15 17 17 15 15 16 17 17 18 18 19 19 19 20 20 21 21 21 22 23 24 25 26 26 27 28 28 28 28 27 27 26
14 14 12 11 12 13 14 14 13 15 15 15 16 16 17 18 18 18 17 17 17 18 18 18 18 18 19 19 19 20 20 22 22 22 23 24 25 26 27 28 27 27 27 27
15 13 12 11 12 14 15 15 15 15 15 15 16 17 18 18 18 18 18 17 17 17 17 18 17 18 18 18 19 19 20 20 21 22 22 23 24 24 25 26 26 26 26 26
14 13 11 11 12 13 13 13 14 16 15 16 16 17 18 18 18 17 18 17 17 17 17 17 16 16 17 18 19 19 19 20 20 21 22 22 22 22 22 23 23 23 23 23
13 13 12 12 12 11 11 12 14 14 14 15 16 17 18 18 18 18 18 17 17 16 16 17 16 16 17 17 18 19 19 19 19 19 20 20 21 21 21 21 23 22 22 23
13 12 11 11 11 11 11 12 13 14 15 15 16 17 17 17 18 18 18 17 17 16 17 17 16 16 16 17 17 18 18 18 17 17 18 18 18 18 19 20 20 21 21 21
12 12 11 11 12 12 11 11 12 13 15 15 16 17 17 17 18 18 18 18 17 17 18 17 17 17 17 17 17 16 16 16 15 15 15 15 16 17 17 17 18 18 19 20
11 11 10 10 12 12 12 10 10 12 13 14 15 15 15 17 18 18 18 17 17 17 17 16 16 16 17 16 15 14 13 13 12 13 13 14 13 13 14 15 15 17 17 18
11 11 11 11 11 12 11 10 11 12 12 14 14 14 15 16 17 17 17 17 17 16 15 14 14 14 14 14 13 11 11 11 11 11 11 11 12 12 13 13 14 14 15 16
10 10 10 10 10 10 10 12 12 11 11 12 13 14 14 15 16 16 16 16 16 15 13 12 12 12 12 11 10 9 9 10 9 10 10 10 11 10 10 11 12 13 13 14
9 10 9 8 9 9 9 11 11 10 10 11 13 14 14 15 15 15 16 15 14 13 12 11 10 10 9 8 8 8 8 9 9 9 9 9 9 8 9 9 9 10 10 11
10 9 8 7 7 6 8 9 9 10 11 12 13 14 14 14 14 15 15 14 13 11 10 9 9 8 7 6 6 6 7 7 7 7 7 7 8 8 8 9 9 9 9 10
11 9 7 6 6 5 6 6 7 9 10 11 12 13 13 14 14 14 14 13 12 9 8 7 7 6 6 5 5 5 5 5 4 4 5 6 6 7 7 7 8 8 9 8
10 8 7 5 4 4 5 5 7 8 9 11 12 13 13 13 14 14 13 12 10 8 6 5 5 4 3 3 3 2 2 2 2 2 3 3 3 4 4 5 5 6 6 6
8 7 6 4 2 3 4 5 5 7 9 11 12 13 13 13 13 12 11 10 8 7 5 4 4 3 2 2 2 2 1 1 0 0 0 1 1 2 3 3 3 3 4 4
7 6 5 3 2 1 2 3 5 7 9 11 12 13 13 13 12 11 10 10 8 6 5 5 5 4 3 3 3 4 4 4 3 3 3 3 3 3 3 3 2 2 2 3
7 5 4 2 1 1 1 3 5 7 9 10 11 12 13 13 12 11 11 10 9 9 8 7 7 6 6 6 6 5 6 6 5 5 4 5 5 5 5 5 5 4 4 3

GEFSCGP_500_meanwind_108.txt.gz
Wind_Speed
15 15 15 16 16 17 16 16 16 18 19 19 19 20 20 21 22 22 23 23 24 24 25 26 26 26 27 27 28 28 27 28 28 28 27 26 26 26 24 22 23 24 23 22
15 15 16 16 17 17 16 15 15 17 18 18 18 19 19 19 19 20 21 22 23 23 24 24 25 26 27 27 27 27 27 27 28 28 28 27 26 26 25 25 24 23 22 21
14 15 16 16 16 16 15 15 15 16 17 18 18 17 17 17 18 19 21 21 22 23 23 24 25 26 26 27 27 27 27 28 28 28 29 29 28 28 27 25 25 24 24 23
16 16 16 16 15 15 14 15 16 17 17 16 16 16 16 18 19 20 21 20 21 22 23 23 24 25 25 26 27 27 26 27 27 28 28 28 28 27 26 25 25 25 24 23
16 16 15 15 14 14 14 15 16 17 16 16 16 17 16 18 19 20 21 21 21 22 22 23 24 25 25 26 26 26 26 26 27 28 28 28 28 27 27 26 25 25 24 23
17 16 14 14 14 14 15 15 16 16 15 15 16 17 16 17 17 19 20 21 22 23 24 23 24 24 24 24 24 25 25 25 26 26 27 27 27 27 27 26 25 24 24 23
16 15 14 14 14 14 14 14 15 15 14 15 15 16 16 16 17 18 20 21 22 22 21 22 22 21 22 22 23 24 24 25 25 26 26 26 26 26 26 26 26 25 25 24
16 16 15 14 14 14 13 13 14 14 14 14 15 16 16 16 17 17 17 18 19 19 19 20 20 21 21 21 22 22 23 25 25 26 26 26 26 25 25 25 25 25 25 25
16 16 14 14 14 14 14 14 14 14 14 14 14 15 14 15 15 16 16 17 18 18 19 18 19 20 20 21 22 23 23 24 24 25 25 25 25 24 25 24 25 26 26 25
15 15 15 15 14 14 15 14 14 15 16 15 14 14 14 15 16 16 17 17 18 18 19 19 19 20 21 21 22 23 24 24 24 25 25 24 24 23 24 25 26 25 26 26
15 15 16 15 15 15 15 15 15 15 16 16 15 15 15 16 16 17 17 17 18 19 20 20 20 21 22 22 22 22 23 23 23 23 23 23 23 23 24 24 25 25 26 27
15 16 16 16 15 15 15 15 15 16 16 16 16 15 16 17 17 18 18 18 19 20 20 20 21 21 21 22 22 22 22 22 22 22 22 23 23 23 24 24 24 24 24 24
15 16 15 15 15 14 14 14 15 16 16 16 17 16 17 17 18 19 19 20 20 21 22 22 22 22 22 21 21 21 21 22 22 22 22 22 23 23 23 23 24 23 23 23
15 15 15 15 15 15 15 15 15 16 17 17 17 18 18 19 19 19 20 20 21 21 21 22 22 22 22 22 21 21 21 21 22 22 22 22 22 22 22 22 23 22 22 23
14 14 14 14 14 14 14 15 15 16 17 18 18 18 19 20 20 20 20 21 21 21 21 22 22 23 23 22 21 21 21 21 21 21 21 20 19 19 20 20 20 21 22 22
14 13 13 12 12 12 12 13 14 15 16 16 17 18 19 19 19 19 20 21 22 22 22 22 23 22 21 20 20 20 20 20 19 18 19 18 17 17 18 18 18 18 19 20
14 13 13 12 12 12 12 13 13 14 15 15 17 17 17 18 19 19 20 21 21 22 22 22 21 20 19 19 18 17 17 16 15 15 15 15 15 16 16 16 16 17 18 18
13 13 13 12 11 11 10 11 13 14 14 15 16 17 17 18 18 19 20 21 21 21 21 20 18 17 16 16 15 15 14 13 13 12 13 12 13 14 14 15 15 16 16 16
13 13 12 11 11 9 10 11 12 12 13 14 15 16 17 18 19 19 20 20 20 19 18 18 17 16 14 13 13 13 13 11 11 11 11 11 11 11 11 12 13 14 14 14
11 11 10 10 11 11 10 10 11 11 12 13 14 15 16 17 18 18 18 18 18 17 16 15 14 13 12 11 11 10 9 9 9 9 9 9 9 9 10 10 11 11 12 13
9 9 9 10 11 10 10 10 10 10 10 11 13 14 15 17 17 18 17 17 16 15 13 12 12 10 10 9 8 7 7 7 7 7 7 7 8 8 9 9 8 9 9 10
8 8 9 10 10 10 10 10 10 9 10 11 12 14 15 16 16 16 16 15 14 12 11 10 9 8 6 5 5 4 4 4 4 5 5 5 6 6 6 6 6 7 7 7
7 8 8 8 9 9 9 9 9 9 11 11 12 13 13 14 15 14 13 12 11 10 8 7 5 4 4 3 3 2 2 2 2 2 2 2 3 2 3 4 4 4 4 4
6 7 7 7 8 8 8 8 8 9 10 11 11 11 12 13 13 12 11 10 9 7 5 4 3 3 2 1 1 1 1 1 1 1 1 2 2 2 2 3 2 2 2 2
6 7 7 7 7 7 7 7 7 8 8 9 10 10 11 11 11 11 10 9 8 6 5 4 3 3 2 2 2 2 2 3 3 4 4 4 5 5 6 6 6 5 4 4
7 7 7 7 6 6 6 6 5 6 7 8 8 9 10 10 10 10 9 8 7 6 6 5 5 5 5 5 5 5 6 6 6 6 6 7 8 8 9 9 8 8 7 6

GEFSCGP_500_meanwind_114.txt.gz
Wind_Speed
12 12 12 13 14 14 14 13 14 16 15 15 15 16 16 17 18 19 20 21 22 23 24 24 24 25 25 25 26 26 25 26 26 26 26 26 27 27 27 26 25 26 26 26
12 13 13 13 12 12 12 12 13 15 14 14 14 14 14 15 16 17 17 18 20 21 23 23 24 24 24 25 26 26 26 25 25 25 26 26 26 27 26 26 25 25 25 25
13 13 12 11 10 10 11 11 12 14 13 13 14 14 15 15 16 16 17 18 19 20 21 22 23 24 24 25 25 26 25 25 25 25 25 25 26 26 26 26 26 25 25 25
14 13 12 11 10 10 11 12 12 12 11 12 12 11 15 15 16 16 17 18 19 20 21 22 23 23 24 24 25 25 25 25 25 25 24 25 25 25 26 26 26 26 26 26
13 12 12 11 10 10 12 11 11 11 11 11 12 11 15 15 16 16 17 18 18 20 20 21 22 23 24 24 25 25 25 25 25 25 25 25 25 25 25 25 25 25 26 26
13 12 12 12 10 10 10 10 10 9 9 9 12 11 13 14 15 15 16 17 18 19 20 21 22 23 23 23 24 25 25 25 25 25 25 25 25 25 25 26 25 25 25 26
12 12 13 12 11 10 9 8 7 7 8 10 12 11 13 14 14 15 16 16 17 18 19 20 21 22 22 22 22 24 24 24 24 24 25 25 25 25 26 26 26 26 26 26
12 12 13 13 12 11 9 9 8 8 9 10 12 12 13 13 14 15 16 17 18 18 19 19 20 21 22 23 23 23 23 23 23 24 25 25 26 26 26 26 26 26 26 27
13 14 13 13 12 11 11 10 10 9 9 9 11 13 14 14 15 16 17 18 19 19 19 20 20 21 21 22 22 23 22 23 24 24 25 26 26 27 26 26 25 26 27 28
13 13 12 12 12 12 11 11 11 9 9 9 11 13 15 16 16 18 18 19 19 19 20 21 21 21 21 21 22 22 22 23 24 24 24 25 25 25 25 26 27 26 27 28
13 12 12 12 12 11 11 11 11 11 11 11 11 13 16 16 17 18 18 19 19 19 20 21 21 22 22 22 22 22 22 22 23 23 23 23 23 24 24 25 26 26 26 27
12 13 13 13 13 12 12 12 11 11 12 12 12 15 16 17 17 17 17 18 19 20 21 21 22 22 23 22 22 21 22 22 22 22 22 23 23 23 24 24 25 25 26 26
12 13 12 11 12 12 12 12 12 12 13 13 13 16 18 18 18 18 19 19 19 20 21 21 22 22 23 22 22 21 22 22 21 21 22 22 22 23 23 24 24 25 25 26
12 12 12 13 12 12 12 12 12 13 12 13 14 17 18 19 19 19 20 20 20 21 21 21 21 21 22 22 22 22 22 22 21 21 21 21 21 22 22 22 22 23 23 23
11 11 11 12 13 12 12 12 12 13 13 14 15 17 18 19 20 20 20 20 21 21 22 21 21 22 22 22 22 21 21 21 20 21 20 20 20 19 19 19 19 19 20 21
11 11 10 10 11 11 11 12 13 13 13 14 16 17 18 19 20 20 19 20 21 22 22 21 21 21 20 20 20 20 19 18 18 18 18 18 18 18 18 18 18 18 19 19
10 11 10 10 10 10 11 12 12 13 13 14 16 17 18 19 19 19 20 20 21 21 21 21 20 20 19 19 18 17 16 15 15 15 15 15 16 16 16 16 16 16 17 17
10 10 9 9 9 10 11 10 11 11 12 14 15 16 17 18 19 19 19 20 20 20 20 19 19 18 18 17 16 15 14 13 13 13 12 13 13 13 13 13 13 13 13 13
9 9 9 8 9 10 10 10 10 11 12 13 14 15 17 18 18 19 19 19 19 19 17 17 16 16 15 15 14 13 12 12 11 11 10 10 9 9 9 10 10 10 10 10
7 7 7 8 9 11 11 10 10 11 12 13 14 15 16 17 18 19 19 18 17 16 15 15 14 13 12 11 10 10 9 9 8 8 8 6 6 7 7 7 7 7 8 8
5 5 6 7 8 10 10 10 10 11 12 12 13 14 16 17 18 18 17 16 15 14 14 12 11 10 9 8 7 7 6 5 5 4 3 3 3 3 4 4 4 5 6 7
3 4 5 6 8 9 9 9 10 10 10 11 13 14 15 16 16 16 15 13 13 12 11 10 8 7 6 5 4 4 3 1 1 1 1 1 1 2 2 2 2 3 3 3
2 3 4 5 6 7 8 8 9 9 10 11 13 14 15 15 15 14 13 12 11 10 9 7 5 4 3 2 2 2 2 2 2 2 2 2 1 1 1 1 1 1 1 1
2 3 4 5 5 7 7 8 8 8 9 10 12 13 13 13 13 13 12 10 9 7 6 5 4 3 3 3 2 3 3 3 3 4 4 4 4 3 3 4 4 4 4 4
3 4 4 5 5 6 6 6 6 7 8 9 10 11 11 12 12 11 10 8 7 6 5 5 4 4 4 4 5 5 5 6 6 5 6 6 6 7 7 7 7 7 7 6
3 4 5 5 5 5 5 4 4 6 7 8 8 9 10 11 11 10 9 8 7 6 6 6 6 6 6 7 7 7 7 7 7 7 8 8 9 9 9 9 9 9 9 9